DLH1CH LROD-EDDM

Flight info

Callsign DLH1CH
Flight time 1h 11m
Altitude 10000
Route TUVNU M423 AGMEL/N0435F380 DCT BUDOP DCT ARSIN DCT SITNI DCT BAGSI DCT MATIG DCT AMADI Q113 NAPSA NAPSA1B
Aircraft A319/M-SDE3FGHIRWY/LB1

Departure

Time 2026-05-04 21:46
Airport Oradea International Airport (LROD)

Arrival

Time 2026-05-04 22:57
Airport Munich Airport (EDDM)
Time Latitude Longitude Altitude Speed Heading
2026-05-04 21:29 47.02610 21.89971 460 ft 0 kts 278°
2026-05-04 21:40 47.02612 21.89951 460 ft 0 kts 278°
2026-05-04 21:40 47.02612 21.89949 460 ft 0 kts 269°
2026-05-04 21:40 47.02586 21.89938 461 ft 3 kts 162°
2026-05-04 21:41 47.02566 21.89988 458 ft 12 kts 104°
2026-05-04 21:41 47.02545 21.90143 461 ft 16 kts 98°
2026-05-04 21:41 47.02493 21.90240 463 ft 12 kts 182°
2026-05-04 21:41 47.02407 21.90213 461 ft 13 kts 191°
2026-05-04 21:42 47.02319 21.90189 464 ft 13 kts 191°
2026-05-04 21:42 47.02231 21.90163 466 ft 13 kts 192°
2026-05-04 21:42 47.02138 21.90137 465 ft 15 kts 189°
2026-05-04 21:42 47.02033 21.90106 462 ft 16 kts 192°
2026-05-04 21:43 47.01926 21.90075 465 ft 16 kts 191°
2026-05-04 21:43 47.01819 21.90036 464 ft 16 kts 212°
2026-05-04 21:43 47.01774 21.90028 468 ft 4 kts 44°
2026-05-04 21:43 47.01814 21.90045 467 ft 2 kts
2026-05-04 21:45 47.01824 21.90047 464 ft 7 kts
2026-05-04 21:45 47.02176 21.90147 465 ft 94 kts 11°
2026-05-04 21:46 47.03048 21.90402 566 ft 146 kts 12°
2026-05-04 21:46 47.04031 21.90680 1282 ft 144 kts 10°
2026-05-04 21:46 47.04990 21.90393 1890 ft 150 kts 324°
2026-05-04 21:46 47.05615 21.89146 2505 ft 155 kts 288°
2026-05-04 21:47 47.05795 21.87596 3110 ft 159 kts 281°
2026-05-04 21:47 47.06051 21.85989 3727 ft 165 kts 283°
2026-05-04 21:47 47.06346 21.84333 4336 ft 171 kts 284°
2026-05-04 21:47 47.06653 21.82609 4953 ft 178 kts 284°
2026-05-04 21:48 47.06968 21.80819 5567 ft 185 kts 284°
2026-05-04 21:48 47.07293 21.78960 6179 ft 191 kts 284°
2026-05-04 21:48 47.07632 21.77015 6655 ft 206 kts 283°
2026-05-04 21:48 47.08000 21.74861 6967 ft 229 kts 283°
2026-05-04 21:49 47.08399 21.72493 7361 ft 251 kts 283°
2026-05-04 21:49 47.08831 21.69885 7862 ft 274 kts 283°
2026-05-04 21:49 47.09291 21.67103 8679 ft 284 kts 283°
2026-05-04 21:49 47.09760 21.64254 9599 ft 290 kts 283°
2026-05-04 21:50 47.10237 21.61361 10533 ft 294 kts 283°
2026-05-04 21:50 47.10724 21.58420 11443 ft 298 kts 283°
2026-05-04 21:50 47.11050 21.56456 12033 ft 301 kts 283°
2026-05-04 21:50 47.11549 21.53450 12907 ft 305 kts 283°
2026-05-04 21:51 47.12055 21.50399 13755 ft 310 kts 284°
2026-05-04 21:51 47.12564 21.47306 14593 ft 313 kts 284°
2026-05-04 21:51 47.13077 21.44182 15419 ft 317 kts 284°
2026-05-04 21:51 47.13594 21.41019 16223 ft 320 kts 284°
2026-05-04 21:52 47.14113 21.37824 16997 ft 323 kts 284°
2026-05-04 21:52 47.14814 21.33496 17853 ft 329 kts 284°
2026-05-04 21:52 47.15165 21.31327 17996 ft 329 kts 284°
2026-05-04 21:52 47.15693 21.28061 18072 ft 329 kts 284°
2026-05-04 21:53 47.16227 21.24755 18399 ft 339 kts 284°
2026-05-04 21:53 47.16793 21.21267 18543 ft 362 kts 284°
2026-05-04 21:53 47.17394 21.17573 18795 ft 379 kts 284°
2026-05-04 21:53 47.18011 21.13771 19368 ft 385 kts 284°
2026-05-04 21:54 47.18630 21.09918 20035 ft 389 kts 284°
2026-05-04 21:54 47.19251 21.06029 20670 ft 392 kts 284°
2026-05-04 21:54 47.19874 21.02109 21280 ft 396 kts 284°
2026-05-04 21:54 47.20502 20.98148 21899 ft 399 kts 284°
2026-05-04 21:55 47.21129 20.94163 22477 ft 402 kts 284°
2026-05-04 21:55 47.21764 20.90134 23050 ft 406 kts 284°
2026-05-04 21:55 47.22405 20.86074 23592 ft 409 kts 284°
2026-05-04 21:55 47.23047 20.81985 24122 ft 412 kts 284°
2026-05-04 21:56 47.23692 20.77871 24630 ft 415 kts 284°
2026-05-04 21:56 47.24346 20.73715 25139 ft 418 kts 284°
2026-05-04 21:56 47.25006 20.69532 25582 ft 422 kts 284°
2026-05-04 21:56 47.25673 20.65296 25946 ft 427 kts 284°
2026-05-04 21:57 47.26335 20.61040 26487 ft 427 kts 284°
2026-05-04 21:57 47.26992 20.56776 27081 ft 426 kts 284°
2026-05-04 21:57 47.27644 20.52536 27683 ft 424 kts 284°
2026-05-04 21:57 47.28296 20.48308 28289 ft 422 kts 284°
2026-05-04 21:58 47.28947 20.44094 28879 ft 421 kts 284°
2026-05-04 21:58 47.29594 20.39902 29448 ft 420 kts 284°
2026-05-04 21:58 47.30229 20.35773 30020 ft 418 kts 284°
2026-05-04 21:58 47.30868 20.31598 30578 ft 417 kts 284°
2026-05-04 21:59 47.31502 20.27441 31144 ft 415 kts 284°
2026-05-04 21:59 47.32140 20.23241 31699 ft 414 kts 284°
2026-05-04 21:59 47.32767 20.19113 32249 ft 412 kts 284°
2026-05-04 21:59 47.33390 20.14993 32802 ft 411 kts 284°
2026-05-04 22:00 47.34009 20.10883 33347 ft 410 kts 283°
2026-05-04 22:00 47.34624 20.06785 33856 ft 409 kts 283°
2026-05-04 22:00 47.35238 20.02688 34025 ft 408 kts 283°
2026-05-04 22:01 47.36457 19.94531 34065 ft 407 kts 283°
2026-05-04 22:01 47.37665 19.86382 34064 ft 406 kts 283°
2026-05-04 22:02 47.38868 19.78239 34062 ft 406 kts 283°
2026-05-04 22:02 47.40070 19.70117 34063 ft 405 kts 283°
2026-05-04 22:03 47.41251 19.62026 34058 ft 405 kts 283°
2026-05-04 22:03 47.42428 19.53904 34054 ft 405 kts 283°
2026-05-04 22:04 47.43602 19.45765 34048 ft 405 kts 283°
2026-05-04 22:04 47.44768 19.37634 34046 ft 405 kts 283°
2026-05-04 22:05 47.45943 19.29494 34043 ft 405 kts 283°
2026-05-04 22:05 47.47111 19.21354 34041 ft 405 kts 283°
2026-05-04 22:06 47.48266 19.13200 34044 ft 406 kts 283°
2026-05-04 22:06 47.49413 19.05037 34043 ft 405 kts 283°
2026-05-04 22:07 47.50552 18.96890 34043 ft 405 kts 283°
2026-05-04 22:07 47.51691 18.88734 34036 ft 404 kts 283°
2026-05-04 22:08 47.52822 18.80588 34035 ft 404 kts 283°
2026-05-04 22:08 47.53943 18.72422 34032 ft 405 kts 282°
2026-05-04 22:09 47.55058 18.64253 34036 ft 405 kts 282°
2026-05-04 22:09 47.56173 18.56088 34022 ft 405 kts 282°
2026-05-04 22:10 47.57289 18.47914 34030 ft 405 kts 282°
2026-05-04 22:10 47.58392 18.39756 34021 ft 404 kts 282°
2026-05-04 22:11 47.59486 18.31592 34015 ft 404 kts 282°
2026-05-04 22:11 47.60559 18.23486 34007 ft 404 kts 282°
2026-05-04 22:12 47.61651 18.15251 34005 ft 404 kts 282°
2026-05-04 22:12 47.62735 18.07060 34004 ft 405 kts 282°
2026-05-04 22:13 47.63796 17.98926 34003 ft 405 kts 282°
2026-05-04 22:13 47.64863 17.90680 34005 ft 405 kts 282°
2026-05-04 22:14 47.65919 17.82539 33999 ft 404 kts 282°
2026-05-04 22:14 47.66976 17.74349 33999 ft 405 kts 282°
2026-05-04 22:15 47.68036 17.66099 33999 ft 404 kts 282°
2026-05-04 22:15 47.69082 17.57898 33996 ft 404 kts 282°
2026-05-04 22:16 47.70116 17.49698 33995 ft 404 kts 282°
2026-05-04 22:16 47.71137 17.41558 33992 ft 404 kts 281°
2026-05-04 22:17 47.72157 17.33358 33993 ft 404 kts 281°
2026-05-04 22:17 47.73177 17.25147 33993 ft 404 kts 281°
2026-05-04 22:18 47.74189 17.16948 33988 ft 404 kts 281°
2026-05-04 22:18 47.75198 17.08727 33984 ft 404 kts 281°
2026-05-04 22:19 47.76201 17.00515 33981 ft 404 kts 281°
2026-05-04 22:19 47.77195 16.92300 33975 ft 404 kts 281°
2026-05-04 22:20 47.78178 16.84093 33970 ft 403 kts 281°
2026-05-04 22:20 47.79159 16.75877 33966 ft 404 kts 281°
2026-05-04 22:21 47.80140 16.67657 33960 ft 404 kts 281°
2026-05-04 22:21 47.81111 16.59429 33961 ft 403 kts 280°
2026-05-04 22:22 47.82077 16.51210 33955 ft 404 kts 280°
2026-05-04 22:22 47.83035 16.42979 33951 ft 404 kts 280°
2026-05-04 22:23 47.83981 16.34729 33954 ft 404 kts 280°
2026-05-04 22:23 47.84931 16.26491 33952 ft 404 kts 280°
2026-05-04 22:24 47.85873 16.18294 33952 ft 404 kts 280°
2026-05-04 22:24 47.86802 16.10055 33952 ft 404 kts 280°
2026-05-04 22:25 47.87728 16.01803 33945 ft 403 kts 280°
2026-05-04 22:25 47.88648 15.93566 33947 ft 403 kts 280°
2026-05-04 22:26 47.89572 15.85317 33943 ft 403 kts 280°
2026-05-04 22:26 47.90490 15.77073 33945 ft 403 kts 279°
2026-05-04 22:27 47.91389 15.68816 33945 ft 403 kts 279°
2026-05-04 22:27 47.92289 15.60564 33946 ft 403 kts 279°
2026-05-04 22:28 47.93182 15.52311 33948 ft 403 kts 279°
2026-05-04 22:28 47.94065 15.44062 33945 ft 403 kts 279°
2026-05-04 22:29 47.94950 15.35810 33942 ft 402 kts 279°
2026-05-04 22:29 47.95822 15.27568 33951 ft 402 kts 279°
2026-05-04 22:30 47.96686 15.19317 33955 ft 402 kts 279°
2026-05-04 22:30 47.97553 15.11070 33950 ft 402 kts 279°
2026-05-04 22:31 47.98415 15.02807 33955 ft 403 kts 278°
2026-05-04 22:31 47.99264 14.94544 33955 ft 403 kts 278°
2026-05-04 22:32 48.00102 14.86271 33954 ft 403 kts 278°
2026-05-04 22:32 48.00951 14.78002 33954 ft 403 kts 278°
2026-05-04 22:33 48.01782 14.69732 33949 ft 402 kts 278°
2026-05-04 22:33 48.02602 14.61463 33945 ft 402 kts 278°
2026-05-04 22:34 48.03419 14.53197 33937 ft 402 kts 278°
2026-05-04 22:34 48.04237 14.44943 33930 ft 402 kts 277°
2026-05-04 22:35 48.04907 14.38076 33924 ft 402 kts 277°
2026-05-04 22:35 48.05694 14.29782 33926 ft 409 kts 275°
2026-05-04 22:35 48.05800 14.25484 33930 ft 420 kts 269°
2026-05-04 22:36 48.05810 14.21073 33924 ft 426 kts 269°
2026-05-04 22:36 48.05827 14.15191 33588 ft 427 kts 269°
2026-05-04 22:36 48.05840 14.10735 32496 ft 430 kts 269°
2026-05-04 22:36 48.05847 14.07712 31904 ft 430 kts 269°
2026-05-04 22:37 48.05858 14.03264 31147 ft 426 kts 269°
2026-05-04 22:37 48.05868 13.98874 30412 ft 421 kts 269°
2026-05-04 22:37 48.05878 13.94568 29681 ft 417 kts 270°
2026-05-04 22:37 48.05886 13.90197 28939 ft 413 kts 269°
2026-05-04 22:38 48.05891 13.85987 28437 ft 407 kts 269°
2026-05-04 22:38 48.05896 13.81783 27998 ft 401 kts 269°
2026-05-04 22:38 48.05897 13.77640 27551 ft 396 kts 269°
2026-05-04 22:38 48.05897 13.73547 27095 ft 392 kts 269°
2026-05-04 22:39 48.05895 13.69499 26656 ft 388 kts 269°
2026-05-04 22:39 48.05890 13.65484 26201 ft 385 kts 269°
2026-05-04 22:39 48.05882 13.61487 25749 ft 383 kts 269°
2026-05-04 22:39 48.05873 13.57517 25274 ft 380 kts 269°
2026-05-04 22:40 48.05872 13.53581 24809 ft 378 kts 270°
2026-05-04 22:40 48.05980 13.49668 24302 ft 377 kts 273°
2026-05-04 22:40 48.06181 13.45778 23796 ft 374 kts 275°
2026-05-04 22:40 48.06428 13.41912 23300 ft 372 kts 275°
2026-05-04 22:41 48.06680 13.38074 22802 ft 370 kts 275°
2026-05-04 22:41 48.06918 13.34268 22316 ft 367 kts 274°
2026-05-04 22:41 48.07138 13.30475 21831 ft 365 kts 274°
2026-05-04 22:41 48.07345 13.26709 21359 ft 362 kts 274°
2026-05-04 22:42 48.07540 13.22976 20895 ft 358 kts 274°
2026-05-04 22:42 48.07729 13.19275 20429 ft 356 kts 274°
2026-05-04 22:42 48.07914 13.15606 19971 ft 353 kts 274°
2026-05-04 22:42 48.08098 13.11961 19518 ft 351 kts 274°
2026-05-04 22:43 48.08280 13.08340 19057 ft 348 kts 274°
2026-05-04 22:43 48.08462 13.04743 18614 ft 345 kts 274°
2026-05-04 22:43 48.08643 13.01179 18169 ft 343 kts 274°
2026-05-04 22:43 48.08820 12.97633 17730 ft 340 kts 273°
2026-05-04 22:44 48.08994 12.94128 17304 ft 337 kts 273°
2026-05-04 22:44 48.09174 12.90644 16869 ft 335 kts 274°
2026-05-04 22:44 48.09438 12.87186 16459 ft 333 kts 277°
2026-05-04 22:44 48.09764 12.83765 16043 ft 331 kts 277°
2026-05-04 22:45 48.10112 12.80374 15632 ft 329 kts 278°
2026-05-04 22:45 48.10803 12.73653 14827 ft 323 kts 277°
2026-05-04 22:45 48.11128 12.70338 14421 ft 321 kts 277°
2026-05-04 22:46 48.11441 12.67036 14023 ft 319 kts 277°
2026-05-04 22:46 48.11743 12.63795 13632 ft 318 kts 277°
2026-05-04 22:46 48.12048 12.60480 13237 ft 317 kts 277°
2026-05-04 22:46 48.12348 12.57228 12829 ft 315 kts 277°
2026-05-04 22:47 48.12646 12.53992 12426 ft 313 kts 277°
2026-05-04 22:47 48.12937 12.50825 12035 ft 310 kts 276°
2026-05-04 22:47 48.13229 12.47636 11633 ft 308 kts 276°
2026-05-04 22:47 48.13518 12.44465 11224 ft 306 kts 277°
2026-05-04 22:48 48.13805 12.41315 10814 ft 304 kts 277°
2026-05-04 22:48 48.14123 12.38195 10440 ft 302 kts 282°
2026-05-04 22:48 48.14874 12.35307 10085 ft 298 kts 299°
2026-05-04 22:48 48.16147 12.32888 9510 ft 295 kts 317°
2026-05-04 22:49 48.17778 12.31084 9024 ft 288 kts 326°
2026-05-04 22:49 48.19413 12.29421 8547 ft 280 kts 325°
2026-05-04 22:49 48.21019 12.27775 8078 ft 272 kts 325°
2026-05-04 22:49 48.22536 12.26215 7642 ft 264 kts 325°
2026-05-04 22:50 48.24028 12.24676 7210 ft 257 kts 325°
2026-05-04 22:50 48.25480 12.23178 6785 ft 251 kts 325°
2026-05-04 22:50 48.26914 12.21693 6361 ft 249 kts 325°
2026-05-04 22:50 48.28328 12.20224 5947 ft 246 kts 325°
2026-05-04 22:51 48.29721 12.18776 5581 ft 240 kts 325°
2026-05-04 22:51 48.31049 12.17393 5529 ft 226 kts 325°
2026-05-04 22:51 48.32309 12.16081 5452 ft 216 kts 325°
2026-05-04 22:51 48.33539 12.14804 5364 ft 215 kts 325°
2026-05-04 22:52 48.34769 12.13530 5269 ft 214 kts 325°
2026-05-04 22:52 48.35992 12.12262 5179 ft 214 kts 325°
2026-05-04 22:52 48.37194 12.10951 5039 ft 212 kts 316°
2026-05-04 22:52 48.38065 12.09235 4926 ft 202 kts 297°
2026-05-04 22:53 48.38468 12.07255 4689 ft 196 kts 276°
2026-05-04 22:53 48.38422 12.05245 4455 ft 191 kts 263°
2026-05-04 22:53 48.38276 12.03281 4209 ft 187 kts 264°
2026-05-04 22:53 48.38134 12.01352 3965 ft 184 kts 263°
2026-05-04 22:54 48.37992 11.99450 3727 ft 182 kts 263°
2026-05-04 22:54 48.37851 11.97567 3481 ft 180 kts 263°
2026-05-04 22:54 48.37712 11.95701 3246 ft 179 kts 263°
2026-05-04 22:54 48.37574 11.93866 3018 ft 169 kts 263°
2026-05-04 22:55 48.37451 11.92225 2797 ft 148 kts 264°
2026-05-04 22:55 48.37341 11.90768 2609 ft 135 kts 264°
2026-05-04 22:55 48.37238 11.89396 2435 ft 130 kts 264°
2026-05-04 22:55 48.37138 11.88067 2268 ft 128 kts 264°
2026-05-04 22:56 48.37037 11.86735 2102 ft 127 kts 263°
2026-05-04 22:56 48.36937 11.85410 1956 ft 128 kts 264°
2026-05-04 22:56 48.36836 11.84070 1788 ft 130 kts 264°
2026-05-04 22:56 48.36734 11.82715 1613 ft 129 kts 264°
2026-05-04 22:57 48.36634 11.81395 1485 ft 118 kts 263°
2026-05-04 22:57 48.36565 11.80495 1479 ft 52 kts 264°
2026-05-04 22:57 48.36525 11.80006 1485 ft 38 kts 262°
2026-05-04 22:57 48.36451 11.79708 1482 ft 27 kts 236°
2026-05-04 22:58 48.36338 11.79474 1476 ft 28 kts 233°
2026-05-04 22:58 48.36213 11.79295 1485 ft 21 kts 182°
2026-05-04 22:58 48.36066 11.79323 1480 ft 22 kts 174°
2026-05-04 22:58 48.35928 11.79350 1479 ft 16 kts 155°
2026-05-04 22:59 48.35820 11.79390 1485 ft 17 kts 173°
2026-05-04 22:59 48.35701 11.79411 1480 ft 18 kts 173°
2026-05-04 22:59 48.35578 11.79432 1485 ft 18 kts 173°
2026-05-04 22:59 48.35452 11.79454 1485 ft 19 kts 173°
2026-05-04 23:00 48.35337 11.79474 1483 ft 16 kts 173°
2026-05-04 23:00 48.35223 11.79493 1482 ft 17 kts 173°
2026-05-04 23:00 48.35101 11.79516 1486 ft 18 kts 173°
2026-05-04 23:00 48.34977 11.79528 1478 ft 14 kts 204°
2026-05-04 23:01 48.34954 11.79385 1486 ft 15 kts 263°
2026-05-04 23:01 48.34946 11.79222 1481 ft 16 kts 270°
2026-05-04 23:01 48.34974 11.79137 1485 ft 9 kts 349°
2026-05-04 23:01 48.35028 11.79153 1484 ft 8 kts 77°
2026-05-04 23:02 48.35030 11.79200 1485 ft 1 kts 82°